Regional Weather Roundup
Issued by NWS Grand Forks, ND

Home | Current Version | Previous Version | Graphics & Text | Print | Product List | Glossary On
Versions: 1 2 3 4 5 6 7 8 9 10 11 12 13 14 15 16 17 18 19 20 21 22 23 24 25 26 27 28 29 30 31 32 33 34 35 36 37 38 39 40 41 42 43 44 45 46 47 48 49 50
000
ASUS43 KFGF 052031
RWRFGF
PRAIRIE TO PINES  WEATHER ROUNDUP
NATIONAL WEATHER SERVICE EASTERN NORTH DAKOTA/GRAND FORKS ND
200 PM CST MON DEC 05 2016

 **SATELLITE DATA USED TO AUGMENT SKY COVER AT AUTOMATED STATIONS**
 *****  WEATHER ACROSS EASTERN NORTH DAKOTA  *****

CITY           SKY/WX    TMP DP  RH WIND       PRES   REMARKS
GRAND FORKS    CLOUDY    30  27  88 NE9       29.62F WCI  22
GRAND FRKS AFB CLOUDY    28  27  93 E9        29.61F WCI  20
GRAND FRKS NWS   N/A     30 N/A N/A NE9         N/A  WCI  22
DEVILS LAKE    CLOUDY    27  27 100 E8        29.60F WCI  18
FARGO          CLOUDY    35  29  78 E6        29.57R
WAHPETON ARPT  CLOUDY    36  32  87 E17G23    29.50F
$$

 ***** WEATHER ACROSS CENTRAL AND WESTERN NORTH DAKOTA  *****

CITY           SKY/WX    TMP DP  RH WIND       PRES   REMARKS
BISMARCK       SNOW      28  26  92 NW20G29   29.60R VSB 1/4 WCI  15
MINOT          CLOUDY    23  20  88 W17       29.58R WCI   9
JAMESTOWN      CLOUDY    29  26  89 NE12      29.51F WCI  19
MINOT AFB      CLOUDY    21  19  93 NW16      29.58R FOG     WCI   7
GARRISON         N/A     24  19  81 W15       29.60R WCI  11
WILLISTON      HVY SNOW  17  12  80 NW26G38   29.73R VSB 1/4 WCI  -2
DICKINSON      SNOW      17  13  84 NW30G37   29.65F VSB 1/2 WCI  -3
HETTINGER      LGT SNOW  20  15  81 NW37G46   29.69R WCI   0
$$

 *****  OTHER AIRPORT OBSERVATIONS IN OUR AREA  *****

CITY           SKY/WX    TMP DP  RH WIND       PRES   REMARKS
WALHALLA         N/A     28  28 100 E9        29.67S WCI  20
GRAFTON AIRPOR CLOUDY    30  28  93 E8        29.67S WCI  23
VALLEY CITY AR CLOUDY    28  28 100 NE12      29.55F WCI  18
CANDO          MIX PCPN  27  27 100 E12       29.62F WCI  16
CAVALIER APRT    N/A     28  27  93 E9        29.66F WCI  20
GWINNER        CLOUDY    34  32  93 E10       29.49F
ROLLA          LGT SNOW  23  23 100 SE12      29.59S VSB 3/4 WCI  12
 ***** THE ABOVE OBSERVATIONS ARE NON NWS ARE NOT QUALITY
       CONTROLLED AND MAY MIS-REPORT RAIN FOR SNOW...
$$

  *****  WEATHER ACROSS NORTHERN MINNESOTA  *****

CITY           SKY/WX    TMP DP  RH WIND       PRES   REMARKS
FLAG ISLAND    CLOUDY    30  25  80 E7        29.70S WCI  23
WARROAD        CLOUDY    30  27  86 E10       29.70S WCI  21
ROSEAU         CLOUDY    30  27  86 E13       29.68F WCI  20
HALLOCK        CLOUDY    30  28  93 E16G22    29.65F WCI  19
THF RVR FALLS  CLOUDY    30  27  88 E20       29.62F WCI  17
BAUDETTE       CLOUDY    30  24  78 E12       29.70F WCI  20
WASKISH        CLOUDY    30  27  86 E10       29.67F WCI  21
CROOKSTON      CLOUDY    30  28  93 E10G16    29.60F WCI  21
GREENBUSH NDAW   N/A     28  27  93 E12         N/A  WCI  18
$$
  *****  WEATHER ACROSS CENTRAL AND WEST MINNESOTA  *****

CITY           SKY/WX    TMP DP  RH WIND       PRES   REMARKS
FOSSTON        CLOUDY    30  27  86 E7G17     29.59F WCI  23
BEMIDJI        PTSUNNY   30  27  90 E12       29.63S WCI  20
PARK RAPIDS    MOSUNNY   32  25  75 E8        29.58F WCI  25
ELBOW LAKE     CLOUDY    34  32  92 SE15      29.52F WCI  24
WADENA         MOSUNNY   30  28  93 E12G17    29.57F WCI  21
DETROIT LAKES  CLOUDY    34  28  80 SE10      29.57R
MOORHEAD       CLOUDY    36  28  75 E7        29.57R
FERGUS FALLS   CLOUDY    36  30  80 SE16      29.56F
MORRIS MN      CLOUDY    36  34  93 E14       29.50F
STAPLES        CLOUDY    30  27  86 E10G17    29.59S WCI  21
$$
  *****  WEATHER ELSEWHERE ACROSS MINNESOTA  *****

CITY           SKY/WX    TMP DP  RH WIND       PRES   REMARKS
DULUTH         MOSUNNY   34  29  82 E9        29.71F
INTRNTL FALLS  CLOUDY    30  24  78 E5        29.72F
ELY            CLOUDY    28  25  86 E5        29.75S WCI  23
CLOQUET        MOSUNNY   34  28  80 E9        29.71S
WHEATON        CLOUDY    36  34  93 E18       29.48F
BRAINERD       PTSUNNY   33  27  78 E7        29.63F
HIBBING        MOSUNNY   31  27  85 NE9       29.70F WCI  23
ALEXANDRIA     CLOUDY    35  32  88 E16       29.54F
SAINT CLOUD    LGT RAIN  34  32  92 E6        29.63S
MINNEAPOLIS    CLOUDY    38  31  76 SE20      29.67F
$$

  *****  WEATHER ACROSS SOUTH DAKOTA  *****

CITY           SKY/WX    TMP DP  RH WIND       PRES   REMARKS
SIOUX FALLS    PTSUNNY   43  33  68 S18       29.50S
BROOKINGS      CLOUDY    42  33  70 S15       29.44F
WATERTOWN      CLOUDY    39  31  72 S13       29.43F
HURON          SUNNY     43  31  62 W16       29.46R
SISSETON         N/A     35  32  88 SE13      29.46F
ABERDEEN       PTSUNNY   38  29  70 NE3       29.45F
MITCHELL       SUNNY     46  32  58 W17       29.48R
PIERRE         MIX PCPN  31  25  78 NW39G48   29.56R WCI  14
MOBRIDGE       SNOW      29  25  85 NW25G36   29.54R VSB 1/4 WCI  14
RAPID CITY     CLOUDY    26  16  65 NW33G44   29.68R WCI   9
$$

  *****  SOME WEATHER IN NEARBY STATES *****

CITY           SKY/WX    TMP DP  RH WIND       PRES   REMARKS
GLASGOW MT     CLOUDY     9   0  67 NW33G39   29.95R WCI -15
GREAT FALLS MT LGT SNOW  12   6  77 NW9       30.03S WCI   0
CHEYENNE WY    MOSUNNY   29   0  28 W35G47    29.71R WCI  12
SCOTTSBLUFF NE PTSUNNY   32  19  58 NW28G35   29.71R WCI  18
OMAHA NE       CLOUDY    49  36  61 S24       29.65F
DES MOINES IA  PTSUNNY   49  34  56 S24       29.77F
DAVENPORT IA   CLOUDY    34  32  92 S16       29.92F FOG     WCI  24
CHICAGO IL     CLOUDY    32  30  92 S10       30.00  WCI  24
EAU CLAIRE WI  CLOUDY    35  32  88 SE6       29.79R
LA CROSSE WI   CLOUDY    39  33  79 S15       29.84S
$$

  *****  SOME NATIONAL WEATHER *****

CITY           SKY/WX    TMP DP  RH WIND       PRES   REMARKS
LA GUARDIA NY  MOSUNNY   50  34  54 NW12      29.97R
RALEIGH NC     PTSUNNY   58  40  51 NE10      30.00S
ATLANTA GA     LGT RAIN  51  51 100 N9        29.95R FOG
NEW ORLEANS LA CLOUDY    60  60 100 NE8       29.74F
OKLAHOMA CITY  PTSUNNY   50  41  71 S16       29.72F
ALBUQUERQUE NM MOSUNNY   47  15  27 S3        29.83F
SALT LAKE CITY MOSUNNY   33   9  36 NW9       30.05F
LOS ANGELES CA PTSUNNY   63  52  67 SE3       29.95F
BOISE ID       SUNNY     32  16  51 SW3       30.13F
SEATTLE WA     LGT RAIN  37  35  92 S9        30.04F
$$

*** WEATHER ACROSS MANITOBA...SASKATCHEWAN AND ONTARIO ***
                ***ONTARIO***

CITY           SKY/WX    TMP DP  RH WIND       PRES   REMARKS
GERALDTON      CLOUDY    32  30  93 CALM      29.76R
THUNDER BAY    CLOUDY    34  30  86 SW6       29.80R
SIOUX LOOKOUT  PTSUNNY   32  27  80 W3        29.73S
TORONTO        PTSUNNY   41  30  65 W14G20    29.97R
BIG TROUT LK   FLURRIES  25  23  93 S2        29.78R
PICKLE LAKE    FLURRIES  27  25  93 CALM      29.74R
DRYDEN         CLOUDY    32  28  86 NW5       29.72S
KENORA         CLOUDY    30  25  80 NE7       29.72S WCI  23
$$
                *** MANITOBA***

CITY           SKY/WX    TMP DP  RH WIND       PRES   REMARKS
BRANDON        LGT SNOW  25  23  93 E18       29.63F DRFTSNOWWCI  11
DAUPHIN        CLOUDY    23  23 100 CALM      29.74S FOG
ISLAND LAKE    FLURRIES  27  25  93 N2        29.77R
PILOT MOUND      N/A     25  25 100 E13         N/A  WCI  13
THE PAS        FLURRIES  23  19  86 W7        29.79R WCI  15
THOMPSON       LGT SNOW  23  21  93 VRB2      29.78R
WINNIPEG       CLOUDY    30  25  80 E10       29.71F WCI  21
LYNN LAKE      FLURRIES  25  25 100 N5        29.76R WCI  19
CHURCHILL      FLURRIES  23  21  93 SE2       29.88R
GILLAM         FLURRIES  18  16  93 NE5       29.83R WCI  11
$$
                ***SASKATCHEWAN***

CITY           SKY/WX    TMP DP  RH WIND       PRES   REMARKS
ESTEVAN        SNOW      21  19  93 N21       29.65R VSB 3/8 WCI   6
KINDERSLEY     CLOUDY     3  -2  78 NW20G29   29.99R BLWGSNOWWCI -18
LLOYDMINSTER   PTSUNNY    1  -4  78 NW21G28   30.01S WCI -20
PRINCE ALBERT  PTSUNNY   12   3  67 NW16      29.89R WCI  -4
REGINA         LGT SNOW  16  12  86 NW23G30   29.81R BLWGSNOWWCI  -2
YORKTON        CLOUDY    21  21 100 N15G21    29.75R WCI   8
N. BATTLEFORD  CLOUDY     7   0  72 NW23      29.99R WCI -14
LA RONGE       FLURRIES  10   3  72 W16G23    29.88R WCI  -7
SASKATOON      FLURRIES  14   5  67 NW16      29.94R WCI  -2
SWIFT CURRENT  CLOUDY     5   1  85 NW22G32   29.91R FOG     WCI -16
$$
NOTE: THESE ARE AUTOMATED STATIONS WITH LIMITED QUALITY CONTROL
      "FAIR" INDICATES FEW OR NO CLOUDS BELOW 12,000 FEET WITH NO
      SIGNIFICANT WEATHER AND/OR OBSTRUCTIONS TO VISIBILITY.
      SKY/WX - SKY CONDITION AND SIGNIFICANT WEATHER.
      TMP - AIR TEMPERATURE.    DP   - DEWPOINT TEMPERATURE.
      RH  - RELATIVE HUMIDITY.  PRES - PRESSURE.
      HX  - HEAT INDEX.         WCI  - WIND CHILL INDEX.
$




USA.gov is the U.S. government's official web portal to all federal, state and local government web resources and services.